Weather History for Columbus, GA

Change the Weather History Date:

Monday, May 27, 2013

  Actual Average Record
Temperature  
Mean Temperature 77 °F 76 °F  
Max Temperature 90 °F 87 °F 97 °F (1953)
Min Temperature 64 °F 65 °F 45 °F (1961)
Degree Days  
Heating Degree Days 0 0  
Month to date heating degree days 27 6  
Since 1 July heating degree days 1800 2118  
Cooling Degree Days 12 11  
Month to date cooling degree days 180 207  
Year to date cooling degree days 306 311  
Growing Degree Days 26 (Base 50)    
Moisture  
Dew Point 57 °F    
Average Humidity 56    
Maximum Humidity 78    
Minimum Humidity 34    
Precipitation  
Precipitation 0.00 in 0.10 in 1.79 in (1991)
Month to date precipitation 2.86 2.75  
Year to date precipitation 25.61 20.05  
Sea Level Pressure  
Sea Level Pressure 30.14 in    
Wind  
Wind Speed 4 mph (South)    
Max Wind Speed 12 mph    
Max Gust Speed 16 mph    
Visibility 10 miles    
Events      
T = Trace of Precipitation, MM = Missing Value Source: NWS Daily Summary

Daily Weather History Graph

Daily Weather History Graph

Search for Another Location

Airport:

Trip Planner

Search our weather history database for the weather conditions in past years. The results will help you decide how hot, cold, wet, or windy it might be!

Date:

Astronomy

May. 27, 2013 Rise Set
Actual Time 6:34 AM EDT 8:39 PM EDT
Civil Twilight 6:07 AM EDT 9:07 PM EDT
Nautical Twilight 5:33 AM EDT 9:41 PM EDT
Astronomical Twilight 4:56 AM EDT 10:17 PM EDT
Moon 11:21 PM EDT (5/27) 9:08 AM EDT (5/27)
Length of Visible Light 15h 00m
Length of Day
14h 04m
Waning Gibbous, 91% of the Moon is Illuminated
May 27
Waning Gibbous
May 31
Last Quarter
Jun 8
New
Jun 16
First Quarter
Jun 23
Full

Hourly Weather History & Observations

Time (EDT) Temp. Heat Index Dew Point Humidity Pressure Visibility Wind Dir Wind Speed Gust Speed Precip Events Conditions
12:51 AM 72.0 °F - 57.0 °F 59% 30.15 in 10.0 mi Calm Calm - N/A   Clear
1:51 AM 70.0 °F - 57.0 °F 63% 30.15 in 10.0 mi Calm Calm - N/A   Clear
2:51 AM 68.0 °F - 57.0 °F 68% 30.14 in 10.0 mi East 3.5 mph - N/A   Clear
3:51 AM 66.9 °F - 57.0 °F 70% 30.14 in 10.0 mi Calm Calm - N/A   Clear
4:51 AM 66.9 °F - 55.9 °F 68% 30.14 in 10.0 mi Calm Calm - N/A   Clear
5:51 AM 64.0 °F - 57.0 °F 78% 30.15 in 10.0 mi Calm Calm - N/A   Clear
6:51 AM 64.0 °F - 57.9 °F 80% 30.17 in 10.0 mi Calm Calm - N/A   Clear
7:51 AM 66.9 °F - 57.9 °F 73% 30.19 in 10.0 mi Calm Calm - N/A   Clear
8:51 AM 71.1 °F - 57.9 °F 63% 30.21 in 10.0 mi Calm Calm - N/A   Clear
9:51 AM 75.0 °F - 60.1 °F 60% 30.21 in 10.0 mi West 5.8 mph - N/A   Clear
10:51 AM 79.0 °F - 61.0 °F 54% 30.21 in 10.0 mi WNW 5.8 mph - N/A   Clear
11:51 AM 82.9 °F 83.3 °F 61.0 °F 47% 30.19 in 10.0 mi Calm Calm - N/A   Clear
12:51 PM 84.9 °F 84.8 °F 60.1 °F 43% 30.17 in 10.0 mi West 5.8 mph - N/A   Scattered Clouds
1:51 PM 84.9 °F 84.2 °F 57.9 °F 40% 30.15 in 10.0 mi Calm Calm - N/A   Scattered Clouds
2:51 PM 86.0 °F 85.4 °F 59.0 °F 40% 30.14 in 10.0 mi Variable 5.8 mph - N/A   Mostly Cloudy
3:51 PM 88.0 °F 86.5 °F 55.9 °F 34% 30.12 in 10.0 mi SE 9.2 mph - N/A   Clear
4:51 PM 88.0 °F 86.1 °F 55.0 °F 32% 30.10 in 10.0 mi SW 11.5 mph - N/A   Scattered Clouds
5:51 PM 86.0 °F 84.7 °F 55.9 °F 36% 30.09 in 10.0 mi South 4.6 mph - N/A   Scattered Clouds
6:51 PM 88.0 °F 86.1 °F 55.0 °F 32% 30.08 in 10.0 mi South 4.6 mph - N/A   Partly Cloudy
7:51 PM 86.0 °F 84.7 °F 55.9 °F 36% 30.08 in 10.0 mi SSW 3.5 mph - N/A   Scattered Clouds
8:51 PM 82.0 °F 81.7 °F 57.0 °F 42% 30.08 in 10.0 mi South 5.8 mph - N/A   Clear
9:51 PM 79.0 °F - 57.9 °F 48% 30.09 in 10.0 mi SE 4.6 mph - N/A   Partly Cloudy
10:51 PM 77.0 °F - 57.0 °F 50% 30.11 in 10.0 mi SSE 5.8 mph - N/A   Clear
11:51 PM 75.9 °F - 55.9 °F 50% 30.12 in 10.0 mi SE 3.5 mph - N/A   Clear